Regional Weather Roundup
Issued by NWS

Home | Current Version | Previous Version | Text Only | Print | Product List | Glossary On
Versions: 1 2 3 4 5 6 7 8 9 10 11 12 13 14 15 16 17 18 19 20 21 22 23 24 25 26 27 28 29 30 31 32 33 34 35 36 37 38 39 40 41 42 43 44 45 46 47 48 49 50
000
ASUS46 KLOX 231512
RWRCA

SOUTHERN CALIFORNIA WEATHER ROUNDUP
NATIONAL WEATHER SERVICE OXNARD CALIFORNIA
800 AM PDT THU OCT 23 2014

NOTE: "FAIR" INDICATES FEW OR NO CLOUDS BELOW 12,000 FEET WITH NO
SIGNIFICANT WEATHER AND/OR OBSTRUCTIONS TO VISIBILITY.

  -  STATIONS PRECEEDED BY AN ASTERISK (*) ARE NOT NWS OR FAA
     STATIONS AND ARE NOT SUBJECT TO NWS AND FAA QUALITY CONTROL.

CAZ041-042-087-231600-
LA AND ORANGE COUNTY COASTAL AREAS


CITY           SKY/WX    TMP DP  RH WIND       PRES   REMARKS
L.A. DOWNTOWN  SUNNY     63  52  67 CALM      29.96R
L.A. AIRPORT   PTCLDY    65  55  70 VRB3      29.97R
LONG BEACH     SUNNY     61  58  90 CALM      29.96R

CITY           SKY/WX    TMP DP  RH WIND       PRES   REMARKS
AVALON           N/A     57 N/A N/A S3          N/A
FULLERTON      SUNNY     62  56  80 CALM      29.96R
*GETTY CENTER    N/A     70  37  30 NE3         N/A
HAWTHORNE      SUNNY     64  54  69 CALM      29.97R
*LEO CARRILLO    N/A     67  40  37 N6          N/A
*LOS ALAMITOS  MOSUNNY   57  57 100 CALM      29.97R
*REDONDO BEACH   N/A     58  55  92 CALM      29.96R
SANTA ANA      PTSUNNY   65  56  72 CALM      29.96R
STA MONICA APT CLEAR     63  50  62 CALM      29.97R
*STA MON PIER    N/A     65  53  64 CALM      29.96R
TORRANCE       MOSUNNY   63  57  82 CALM      29.98R
*UCLA            N/A     68  43  40 N2        29.95R

$$

CAZ547-548-048-231600-
LA COUNTY VALLEYS AND INLAND EMPIRE


CITY           SKY/WX    TMP DP  RH WIND       PRES   REMARKS
BURBANK        CLEAR     62  45  53 CALM      29.98R
VAN NUYS       CLEAR     60  48  64 W3        29.98R

CITY           SKY/WX    TMP DP  RH WIND       PRES   REMARKS
CORONA AIRPORT SUNNY     53  47  80 CALM      30.00R
*CHATSWORTH      N/A     60  48  64 CALM      29.96R
CHINO          MOSUNNY   57  52  83 CALM      30.00R
*CLAREMONT       N/A     61  34  36 CALM        N/A
MARCH AFB      SUNNY     56  45  68 CALM      30.02R
*NORTHRIDGE      N/A     57  46  67 CALM        N/A
ONTARIO        MOSUNNY   62  50  64 CALM      29.99R
*PASADENA        N/A     64  46  52 CALM        N/A
POMONA         SUNNY     59  41  51 CALM      30.02R
RIVERSIDE      SUNNY     62  41  46 NE5       29.99R
SAN BERNARDINO MOSUNNY   54  34  47 NE3       30.00R
*SAN RAFAEL HI   N/A     77  49  36 CALM        N/A
*SAUGUS          N/A     63  33  33 CALM        N/A
*WHITEMAN AP   CLEAR     64  39  39 CALM      30.02
*WOODLAND HILL   N/A     55  48  76 NW1         N/A

$$

CAZ054-055-231600-
LA AND SAN BERNARDINO COUNTY MOUNTAINS


CITY           SKY/WX    TMP DP  RH WIND       PRES   REMARKS
*ACTON           N/A     51  31  46 N8          N/A
*BIG BEAR AIRP SUNNY     34  18  51 CALM      30.31R
*BIG PINES       N/A     57  13  17 CALM        N/A
*CHILAO          N/A     67  16  14 E9          N/A
MT WILSON NWS    N/A    N/A N/A N/A MISG        N/A
SANDBERG       CLEAR     67  27  22 S6        30.16R
*WARM SPRINGS    N/A     69  31  24 CALM        N/A

$$

CAZ028-029-059-060-099-231600-
ANTELOPE VALLEY AND SURROUNDING AREAS


CITY           SKY/WX    TMP DP  RH WIND       PRES   REMARKS
LANCASTER      CLEAR     47  27  45 W3        30.08R
PALMDALE       CLEAR     52  30  43 W3        30.08R
*POPPY PARK      N/A     59  31  34 SW2         N/A

CITY           SKY/WX    TMP DP  RH WIND       PRES   REMARKS
29 PALMS       MOSUNNY   58  29  33 NW5       30.13R
BARSTOW/DAGGET SUNNY     57  27  31 SW3       30.06R
BISHOP         PTCLDY    44  25  47 NW7       30.13R
CHINA LAKE     PTCLDY    53  27  36 CALM      30.07R
EDWARDS AFB    PTSUNNY   47  22  36 NE1       30.07R
MOJAVE         FAIR      55  28  35 NW5       30.09R
NEEDLES        SUNNY     70  40  33 SW3       30.02R
VICTORVILLE    SUNNY     57  27  30 S10       30.09R

$$

CAZ039-040-231600-
VENTURA AND SANTA BARBARA COUNTY COAST


CITY           SKY/WX    TMP DP  RH WIND       PRES   REMARKS
CAMARILLO      CLEAR     58  46  64 CALM      29.97R
NWS OXNARD       N/A     56  46  69 NW2       29.97R
OXNARD AIRPORT CLEAR     61  41  47 NE5       29.97R
*POINT MUGU    PTCLDY    60  51  72 N3        29.97R
SBA APT/GOLETA CLEAR     55  49  80 CALM      29.97R
*SANTA BARBARA   N/A     60  50  69 CALM      30.05R
*VENTURA         N/A     58  42  56 NE3       30.02R

$$

CAZ044-045-231600-
VENTURA COUNTY VALLEYS


CITY           SKY/WX    TMP DP  RH WIND       PRES   REMARKS
*SIMI VALLEY     N/A     58  45  61 CALM      29.96R
*OJAI            N/A     51  47  87 CALM      29.96R
*FILLMORE        N/A     53  47  79 CALM      29.90R

$$

CAZ053-231600-
VENTURA COUNTY MOUNTAINS


CITY           SKY/WX    TMP DP  RH WIND       PRES   REMARKS
*LOCKWOOD VLY    N/A     37  21  52 MISG        N/A
*ROSE VALLEY     N/A     34  28  80 MISG        N/A

$$

CAZ034-035-036-231600-
CENTRAL COAST AND SANTA YNEZ VALLEY


CITY           SKY/WX    TMP DP  RH WIND       PRES   REMARKS
SAN LUIS OBISP CLEAR     51  40  65 CALM      30.00R
SANTA MARIA    CLEAR     55  47  74 E5        30.00R

CITY           SKY/WX    TMP DP  RH WIND       PRES   REMARKS
*CAL POLY SLO    N/A     61  45  55 CALM        N/A
*LOMPOC        CLEAR     46  43  87 E6        30.01R
*PISMO BEACH     N/A     55  44  64 NE1       30.01R
*SANTA YNEZ    FAIR      50  43  76 CALM      30.01R

$$

CAZ037-038-051-231600-
SAN LUIS OBISPO COUNTY INTERIOR AND CUYAMA VALLEY


CITY           SKY/WX    TMP DP  RH WIND       PRES   REMARKS
*CUYAMA          N/A     48  35  60 E2        30.01R
PASO ROBLES    CLEAR     45  35  68 CALM      30.05R

$$

CAZ032-033-061-231600-
SOUTHERN DESERTS


CITY           SKY/WX    TMP DP  RH WIND       PRES   REMARKS
BLYTHE         SUNNY     68  42  38 CALM      29.98R
IMPERIAL       SUNNY     67  40  37 W7        29.94R
PALM SPRINGS   MOSUNNY   72  28  19 NW8       29.98R
THERMAL        SUNNY     61  44  53 CALM      29.93R

$$

ELSEWHERE ACROSS THE WESTERN UNITED STATES AND MEXICO


CITY           SKY/WX    TMP DP  RH WIND       PRES   REMARKS
DENVER, CO     MOSUNNY   55  35  47 SW8       30.18R
GRAND CANYON,  MOSUNNY   40  29  64 CALM      30.32R
HONOLULU, HI   PTCLDY    75  73  94 N5        29.98S
KAHULUI, MAUI  CLEAR     72  68  88 S5        29.99R
LAKE TAHOE, CA MOCLDY    55  25  31 SE8       30.16R
LAS VEGAS, NV  PTSUNNY   66  32  28 S6        30.05R
MAMMOTH LAKES, FAIR      37  18  44 N5G16     30.24R WCI  34
MEXICO CITY, M MOSUNNY   59  48  67 NE10      30.38R
PHOENIX, AZ    MOSUNNY   72  51  47 E5        30.01R
PORTLAND, OR   LGT RAIN  55  54  96 E8        29.78R
RENO, NV       MOCLDY    46  30  53 CALM      30.11R
SALT LAKE CITY PTSUNNY   51  34  52 S7        30.14R
SAN DIEGO, CA  MOSUNNY   64  55  72 CALM      29.98R
SAN FRANCISCO, MOCLDY    63  59  87 S3        30.05R
SAN JOSE, CA   MOCLDY    58  52  80 NE3       30.06R
SEATTLE, WA    LGT RAIN  51  48  89 SE20G26   29.75F
TIJUANA, MEX   SUNNY     64  45  48 E3        29.99R

$$

STATION/POSITION TIME  TEMP    WIND        PRES    VSBY  WAVE
                       AIR SEA DIR/SP/G                  HT/PER
                 (UTC) (F)     (DEG/KT/KT) (MB)    (MI)  (FT/S)
POINT ARGUELLO B NOT AVBL
WEST SANTA BARBA 1500   65 65  330/ 16/ 19 1013.9R         9/12
POINT CONCEPTION NOT AVBL
EAST SANTA BARBA 1500   65 68  200/  4/  6 1014.8R
SANTA MONICA BAY 1500   69 72  120/  2/  4 1014.0R         4/11



USA.gov is the U.S. government's official web portal to all federal, state and local government web resources and services.